sat.trackr.live / text

‹ back to catalog

STARLINK-1094

NORAD 44941 · 2020-001AD

PAYLOAD ACTIVE UNKNOWN

§ Identity

Operator
Country
US
Launch date
2020-01-07
Launch site
AFETR
Launch vehicle
Mass (kg)
RCS (m²)

Purposes: comms

External: N2YO · Heavens-Above · Gunter

§ Orbital elements

Epoch: 2026-09-04T03:11:43.637280Z

Period
91.97 min
Inclination
53.1454°
Eccentricity
0.0003436
Mean motion
15.65679318 rev/d
Perigee alt
369.0 km
Apogee alt
373.6 km
Semi-major
6,749.4 km
B*
3.2784e-4
RAAN
184.2192°
Arg perigee
43.5298°
Mean anomaly
316.5989°
Rev number
36,792

§ Raw data

STARLINK-10941 44941U 20001AD  26247.13314395  .00033285  00000+0  32784-3 0  99922 44941  53.1454 184.2192 0003436  43.5298 316.5989 15.65679318367929

JSON: /api/v1/satellites/44941 · /tle

For live sub-satellite position, see the globe view (requires WebGL).

§ Visibility from observer

Set your observer location to see the next 7 days of passes ≥ 10°. The values pass through the URL so the page stays shareable.

No JS? Fill the form by hand. The geolocation button needs JavaScript.